Pagrindinis puslapis
METAR-TAF:

METAR-TAF

Oro uostai :

Vidsel, Švedija

platuma: 65-52N, ilguma: 020-08E, Aukštis: 180 m

Dabartinis oras

Ataskaita buvo paskelbta 21 minutes, ne 21:20 UTC
Vėjas 1 kt nuo kintamojo kryptimis
Temperatūra 14°C
Drėgmė 82%
Slėgis 1012 hPa
Matomumas 10 km arba daugiau

METAR: ESPE 172120Z AUTO VRB01KT 9999 SCT140/// 14/11 Q1012

Laikas: 23:41 (21:41 UTC)


TAF: trūkstamas

Orai ataskaitas ir orų prognozės (METAR, TAF).

turimą stotys yra geltonos ir raudonos taškus žemėlapyje.

Perkelti pele per norėdami pamatyti stoties vardą.

Tada spustelėkite, norėdami matyti oro stebėjimo ir prognozės.

Norėdami pakeisti žemėlapį: spustelėkite ant žalios mygtukų su juodo kryžiaus žemyn,; žalią mygtuką su brūkšneliu, jei norite nutolinti; arba žalių rodyklių gretimoms žemėlapius.


METAR-TAF: